Tracking 33190 objects as of 9-Feb-2026
HD Live streaming from Space Station
objects crossing your sky now

DELTA 1 DEB

Track DELTA 1 DEB now!
10-day predictions


NORAD ID: 14904
Int'l Code: 1976-077ES
Perigee: 1,369.2 km
Apogee: 1,384.6 km
Inclination: 102.7 °
Period: 113.1 minutes
Semi major axis: 7747 km
RCS: 0.0109 m2 (small)
Launch date: July 29, 1976
Source: United States (US)
Launch site: AIR FORCE WESTERN TEST RANGE (AFWTR)

Note: This is SATELLITE DEBRIS
Your satellite tracking list
Your tracking list is empty




NASA's NSSDC Master Catalog

Two Line Element Set (TLE):
1 14904U 76077ES  26037.96018844  .00000164  00000-0  10527-2 0  9991
2 14904 102.7275 304.7600 0009943 301.0971 124.0981 12.73002092576717
Source of the keplerian elements: AFSPC